• METAR

    LHBP Budapest Liszt Ferenc repülőtér METAR

    LHBP 242200Z 09003KT CAVOK 20/09 Q1012 NOSIG

    QNH légnyomás:1012hpa
    Hőmérséklet/temperature: 20°C
    Harmatpont/Dew Point Temp: 9°C

    LHDC Debreceni repülőtér METAR

    LHDC 242145Z AUTO 00000KT CAVOK 19/10 Q1012 NOSIG

    QNH légnyomás:1012hpa
    Hőmérskélet/temperature: 19°C
    Harmatpont/Dew Point Temp: 10°C

    LHPR Győr-pér repülőtér METAR

    LHPR 242145Z AUTO 13008KT 9999 SCT075 BKN097 //////CB 22/12 Q1010

    QNH légnyomás:1010hpa
    Hőmérskélet/temperature: 22°C
    Harmatpont/Dew Point Temp: 12°C

    lhsm Sármellék repülőtér METAR

    LHSM 242145Z AUTO 17007KT CAVOK 20/16 Q1010

    QNH légnyomás:1010hpa
    Hőmérskélet/temperature: 20°C
    Harmatpont/Dew Point Temp: 16°C

    lhpp Pécs-pogány repülőtér METAR

    LHPP 242145Z AUTO 12005KT 080V150 CAVOK 21/14 Q1011

    QNH légnyomás:1011hpa
    Hőmérskélet/temperature: 21°C
    Harmatpont/Dew Point Temp: 14°C

    LHKE Kecskemét repülőtér METAR

    LHKE 242145Z 09004KT CAVOK 21/09 Q1011 NOSIG RMK BLU

    QNH légnyomás:1011hpa
    Hőmérskélet/temperature: 21°C
    Harmatpont/Dew Point Temp: 9°C

    LHSN Szolnok repülőtér METAR

    LHSN 242145Z 11004KT CAVOK 21/08 Q1011 NOSIG RMK BLU

    QNH légnyomás:1011hpa
    Hőmérskélet/temperature: 21°C
    Harmatpont/Dew Point Temp: 8°C

    LHUD szeged repülőtér METAR

    LHUD 032345Z 35004KT CAVOK 18/13 Q1019

    QNH légnyomás:1019hpa
    Hőmérskélet/temperature: 18°C
    Harmatpont/Dew Point Temp: 13°C

  • TÉRKÉPEK

    Felhőkép

    Széltérkép

    Hőtérkép

    radarkép

    map

    map

  • Műholdképek

    Magyarország műholdkép

    Europa műholdkép

    Europa szinoptikus térkép

  • ELTE ELŐREJELZÉS (2 NAP LHBP)

    2 napos légnyomás előrejelzés Budapest LHBP

    2 napos szél előrejelzés Budapest LHBP

    2 napos termik trigger előrejelzés Budapest LHBP

    2 napos felhőzet előrejelzés Budapest LHBP

    2 napos thermal index profile előrejelzés Budapest LHBP

    2 napos átlag emelés előrejelzés Budapest LHBP

    2 napos felhő alap előrejelzés Budapest LHBP

    2 napos hőmérséklet advekció előrejelzés Budapest LHBP

  • VILLÁMRADAR

  • ELŐREJELZÉS

  • WINDFINDER ELŐREJELZÉS

  • RIASZTÁS - VÉSZJELZÉS

Repülésmeteorológia, aktuális időjárási helyzet és előrejelzés

Repülésmeteorológia, várható időjárás jelentések, előrejelzések és riasztások. METAR, TAF adatok, aktuális időjárás helyzetek és térképek.

A meteorológia kialakulásában és fejlődésében kiemelt szerep jutott a repülésnek, illetve a repülés technikai fejlődésének. A repülésmeteorológia elsődlegesen a repülés biztonságát, másodlagosan a repülés gazdaságosságát hivatott szolgálni. Eleinte a katonai repülőgépeknek, később a polgári repülésnek, ma már a sportrepülő pilótáknak, és a mezőgazdasági pilótáknak is egyaránt szükségük van a naprakész meteorológiai információkra.

Repülésmeteorológia oldalunkon összegyűjtöttük a legnépszerűbb és legjobb időjárás oldalak hivatkozásait, hogy repülés előtt vagy akár közben minden fontos forrást egyszerűen és gyorsan megtalálj. Magyarország várható időjárása, légállapoti diagramok, termik előrejelzés, METAR adatok, vészjelzések és figyelmeztetések. A képernyő szélén közvetlenül pedig pozíciód aktuális időjárási paramétereit is megtalálod.

JOGI NYILATKOZAT

Az oldal használatával a látogató elfogadja az alábbi felhasználási feltételeket:

Az oldalon feltüntetett repülésmeteorológia információkat mindenki csak saját felelősségre használhatja. A feltüntetett külső forrásokból származó információk pontosságáért és tartalmáért, valamint az esetlegesen ebből adódó bármilyen káresemény kapcsán a FLYTIME.HU nem vállal felelősséget!